Long Beach /Daugherty Field/ Airport
KLGB : now visible

Airfield :











YOU CAN JOIN US ON...

 
LOGIN :

Register | Disclaimer

   EN    FR    IT 

 









Legend :    VFR   Marginal VFR   IFR   Intensive IFR   Very Intensive IFR
Visi :
Ceiling :
>= 8 km
>= 3000ft
5 to 8 km
1000 to 3000 ft
1500m to 5 km
500 to 1000 ft
800 to 1500m
200 to 500 ft
< 800m
< 200 ft
Symbols :   Thunderstorms  Fog  Heavy snow  Heavy precipitations  Wind > 20 kt






- Airport Elevation : 60 ft
- IATA code : LGB


KLGB - Long Beach /Daugherty Field/

CURRENT METAR :
  • 191553Z 00000KT 6SM HZ BKN022 15/10 A3007 RMK AO2 SLP180 T01500100

EXPIRED METARs :
  • 191453Z 00000KT 5SM HZ BKN021 14/09 A3004 RMK AO2 SLP173 T01390089 53011
  • 191353Z AUTO 00000KT 7SM OVC021 14/09 A3003 RMK AO2 SLP168 T01440094

TAF KLGB
Valid from the 19 at 14:00 until the 20 at 12:00 UTC


191425Z 1914/2012 03005KT P6SM OVC021
FM191900 19008KT P6SM SCT025
FM200300 VRB03KT P6SM OVC025



MET'MAP, your aeronautical weather chart ! - Copyright ORBIFLY December 2007 - Disclaimer

ORBIFLY MET'MAP TEAM :

Programming & Development : Alexandra Zaïnal
Concept & original design : Baudouin d'Aumeries
Assistance for programming : Marc-Olivier Méhu
Technical & hardware support : Manuel Goepfert

Contact : metmap@orbifly.com




SOURCES & CREDITS :

   NOAA       Earth
Advisory